User: anonymous   Login
Location: Unspecified
(0.0000°N, 0.0000°E)
Time: 01:26:26
(UTC+00:00)
Language:

HODOYOSHI 4 - Orbit

View from above orbital plane
View from above orbital plane
View from above satellite
View from above satellite

Ground track
Ground track

The orbit data is extracted from the following two-line orbital elements,

1 40011U 14033B   17266.53447377  .00000149  00000-0  26114-4 0  9991
2 40011  97.8741 163.0779 0026011 314.2936  45.6136 14.80911183176314
Epoch (UTC): 23 September 2017 12:49:38
Eccentricity: 0.0026011
inclination: 97.8741°
perigee height: 608 km
apogee height: 644 km
right ascension of ascending node: 163.0779°
argument of perigee: 314.2936°
revolutions per day: 14.80911183
mean anomaly at epoch: 45.6136°
orbit number at epoch: 17631

The dashed part of the orbit path shows where the satellite is in the earth's shadow,  

DLR